| time (UTC) | temp F | wind direction | speed MPH | gust MPH | rain 1hr in | rain 24hr in | rain mn in | humidity % | barometer mb |
| 20260903135531 | 62 | 313 | 3.0 | 10.0 | 0.00 | 0.00 | 0.00 | 83 | 927.5 |
| 20260903135035 | 62 | 297 | 7.0 | 11.0 | 0.00 | 0.00 | 0.00 | 83 | 927.5 |
| 20260903134530 | 62 | 223 | 5.0 | 11.0 | 0.00 | 0.00 | 0.00 | 83 | 927.1 |
| 20260903134031 | 62 | 134 | 5.0 | 15.0 | 0.00 | 0.00 | 0.00 | 83 | 926.5 |
| 20260903133534 | 62 | 90 | 9.0 | 15.0 | 0.00 | 0.00 | 0.00 | 84 | 926.1 |
| 20260903133030 | 60 | 67 | 6.0 | 15.0 | 0.00 | 0.00 | 0.00 | 85 | 926.5 |
| 20260903132630 | 60 | 260 | 7.0 | 15.0 | 0.00 | 0.00 | 0.00 | 85 | 927.1 |
| 20260903131529 | 61 | 292 | 5.0 | 8.0 | 0.00 | 0.00 | 0.00 | 84 | 927.5 |
| 20260903131029 | 60 | 105 | 4.0 | 8.0 | 0.00 | 0.00 | 0.00 | 84 | 927.1 |
| 20260903130531 | 60 | 167 | 2.0 | 5.0 | 0.00 | 0.00 | 0.00 | 83 | 927.4 |
| 20260903130027 | 61 | 126 | 1.0 | 3.0 | 0.00 | 0.00 | 0.00 | 83 | 927.1 |
| 20260903125526 | 61 | 126 | 0.0 | 2.0 | 0.00 | 0.00 | 0.00 | 83 | 926.8 |
| 20260903125026 | 61 | 360 | 1.0 | 2.0 | 0.00 | 0.00 | 0.00 | 82 | 926.6 |
| 20260903124525 | 61 | 360 | 0.0 | 2.0 | 0.00 | 0.00 | 0.00 | 82 | 926.4 |
| 20260903124024 | 61 | 360 | 1.0 | 4.0 | 0.00 | 0.00 | 0.00 | 81 | 926.3 |
| 20260903123525 | 61 | 360 | 0.0 | 4.0 | 0.00 | 0.00 | 0.00 | 80 | 926.4 |
| 20260903123024 | 62 | 360 | 2.0 | 4.0 | 0.00 | 0.00 | 0.00 | 80 | 926.8 |
| 20260903122523 | 62 | 360 | 1.0 | 5.0 | 0.00 | 0.00 | 0.00 | 81 | 926.8 |
| 20260903121530 | 62 | 360 | 1.0 | 5.0 | 0.00 | 0.00 | 0.00 | 81 | 926.4 |
| 20260903121020 | 62 | 360 | 0.0 | 4.0 | 0.00 | 0.00 | 0.00 | 80 | 926.4 |
| 20260903120519 | 62 | 360 | 0.0 | 7.0 | 0.00 | 0.00 | 0.00 | 79 | 926.4 |
| 20260903120035 | 63 | 360 | 1.0 | 8.0 | 0.00 | 0.00 | 0.00 | 79 | 926.4 |
| 20260903115517 | 63 | 360 | 3.0 | 9.0 | 0.00 | 0.00 | 0.00 | 79 | 926.6 |
| 20260903115017 | 63 | 360 | 5.0 | 9.0 | 0.00 | 0.00 | 0.00 | 79 | 926.7 |
| 20260903114517 | 63 | 360 | 5.0 | 8.0 | 0.00 | 0.00 | 0.00 | 79 | 926.6 |
| 20260903114016 | 63 | 360 | 5.0 | 8.0 | 0.00 | 0.00 | 0.00 | 79 | 926.7 |
| 20260903113516 | 63 | 360 | 5.0 | 8.0 | 0.00 | 0.00 | 0.00 | 79 | 926.6 |
| 20260903113021 | 63 | 360 | 5.0 | 7.0 | 0.00 | 0.00 | 0.00 | 78 | 926.6 |
| 20260903112516 | 63 | 360 | 2.0 | 4.0 | 0.00 | 0.00 | 0.00 | 78 | 926.7 |
| 20260903111515 | 63 | 360 | 0.0 | 4.0 | 0.00 | 0.00 | 0.00 | 77 | 926.8 |
| 20260903111017 | 64 | 360 | 1.0 | 7.0 | 0.00 | 0.00 | 0.00 | 77 | 926.7 |
| 20260903110515 | 64 | 360 | 3.0 | 9.0 | 0.00 | 0.00 | 0.00 | 76 | 926.5 |
| 20260903110014 | 64 | 360 | 4.0 | 9.0 | 0.00 | 0.00 | 0.00 | 76 | 926.5 |
| 20260903105514 | 64 | 360 | 4.0 | 12.0 | 0.00 | 0.00 | 0.00 | 75 | 926.5 |
| 20260903105014 | 64 | 360 | 7.0 | 15.0 | 0.00 | 0.00 | 0.00 | 75 | 926.4 |
| 20260903104514 | 64 | 360 | 10.0 | 18.0 | 0.00 | 0.00 | 0.00 | 75 | 926.0 |
| 20260903104014 | 64 | 360 | 10.0 | 18.0 | 0.00 | 0.00 | 0.00 | 75 | 925.9 |
| 20260903103514 | 64 | 360 | 8.0 | 14.0 | 0.00 | 0.00 | 0.00 | 75 | 925.8 |
| 20260903103013 | 64 | 360 | 9.0 | 12.0 | 0.00 | 0.00 | 0.00 | 75 | 925.7 |
| 20260903102513 | 64 | 360 | 6.0 | 15.0 | 0.00 | 0.00 | 0.00 | 74 | 925.8 |
| 20260903101521 | 64 | 360 | 9.0 | 18.0 | 0.00 | 0.00 | 0.00 | 74 | 925.6 |
| 20260903101011 | 64 | 360 | 11.0 | 21.0 | 0.00 | 0.00 | 0.00 | 74 | 925.5 |
| 20260903100511 | 64 | 360 | 13.0 | 21.0 | 0.00 | 0.00 | 0.00 | 74 | 925.1 |
| 20260903100020 | 64 | 360 | 12.0 | 20.0 | 0.00 | 0.00 | 0.00 | 74 | 925.1 |
| 20260903095509 | 64 | 360 | 11.0 | 20.0 | 0.00 | 0.00 | 0.00 | 73 | 925.2 |
| 20260903095007 | 65 | 360 | 11.0 | 19.0 | 0.00 | 0.00 | 0.00 | 73 | 925.4 |
| 20260903094516 | 65 | 360 | 12.0 | 19.0 | 0.00 | 0.00 | 0.00 | 72 | 925.2 |
| 20260903094005 | 65 | 360 | 9.0 | 16.0 | 0.00 | 0.00 | 0.00 | 73 | 925.2 |
| 20260903093505 | 65 | 360 | 9.0 | 14.0 | 0.00 | 0.00 | 0.00 | 72 | 925.1 |
| 20260903093003 | 65 | 360 | 9.0 | 19.0 | 0.00 | 0.00 | 0.00 | 72 | 924.9 |
| 20260903092506 | 65 | 360 | 8.0 | 19.0 | 0.00 | 0.00 | 0.00 | 71 | 924.9 |
| 20260903091504 | 65 | 360 | 9.0 | 19.0 | 0.00 | 0.00 | 0.00 | 71 | 925.0 |
| 20260903091003 | 66 | 360 | 10.0 | 18.0 | 0.00 | 0.00 | 0.00 | 71 | 925.1 |
| 20260903090502 | 66 | 360 | 8.0 | 18.0 | 0.00 | 0.00 | 0.00 | 70 | 925.3 |
| 20260903090003 | 66 | 360 | 10.0 | 18.0 | 0.00 | 0.00 | 0.00 | 70 | 925.1 |
| 20260903085502 | 66 | 360 | 10.0 | 16.0 | 0.00 | 0.00 | 0.00 | 69 | 925.4 |
| 20260903085002 | 67 | 360 | 8.0 | 13.0 | 0.00 | 0.00 | 0.00 | 69 | 925.7 |
| 20260903084502 | 67 | 360 | 6.0 | 12.0 | 0.00 | 0.00 | 0.00 | 69 | 925.8 |
| 20260903084002 | 66 | 360 | 7.0 | 12.0 | 0.00 | 0.00 | 0.00 | 69 | 925.8 |
| 20260903083505 | 66 | 360 | 8.0 | 13.0 | 0.00 | 0.00 | 0.00 | 70 | 925.8 |
| 20260903083002 | 66 | 360 | 7.0 | 13.0 | 0.00 | 0.00 | 0.00 | 70 | 926.0 |
| 20260903082501 | 67 | 360 | 6.0 | 9.0 | 0.00 | 0.00 | 0.00 | 69 | 926.1 |
| 20260903081502 | 66 | 360 | 5.0 | 10.0 | 0.00 | 0.00 | 0.00 | 70 | 926.5 |
| 20260903081000 | 66 | 360 | 7.0 | 10.0 | 0.00 | 0.00 | 0.00 | 71 | 926.4 |
| 20260903080500 | 65 | 360 | 7.0 | 11.0 | 0.00 | 0.00 | 0.00 | 72 | 926.5 |
| 20260903080002 | 65 | 360 | 7.0 | 13.0 | 0.00 | 0.00 | 0.00 | 72 | 926.7 |
| 20260903075600 | 66 | 360 | 9.0 | 13.0 | 0.00 | 0.00 | 0.00 | 72 | 926.8 |
| 20260903075100 | 66 | 360 | 9.0 | 14.0 | 0.00 | 0.00 | 0.00 | 72 | 926.8 |
| 20260903074559 | 66 | 360 | 10.0 | 15.0 | 0.00 | 0.00 | 0.00 | 71 | 927.0 |
| 20260903074059 | 66 | 346 | 9.0 | 18.0 | 0.00 | 0.00 | 0.00 | 72 | 926.9 |
| 20260903073558 | 66 | 355 | 13.0 | 18.0 | 0.00 | 0.00 | 0.00 | 71 | 926.9 |
| 20260903073056 | 66 | 360 | 11.0 | 18.0 | 0.00 | 0.00 | 0.00 | 70 | 926.7 |
| 20260903072555 | 67 | 17 | 12.0 | 21.0 | 0.00 | 0.00 | 0.00 | 69 | 926.6 |
| 20260903071600 | 69 | 360 | 14.0 | 23.0 | 0.00 | 0.00 | 0.00 | 65 | 926.6 |
| 20260903071052 | 70 | 343 | 15.0 | 23.0 | 0.00 | 0.00 | 0.00 | 64 | 926.6 |
| 20260903070553 | 72 | 330 | 15.0 | 21.0 | 0.00 | 0.00 | 0.00 | 62 | 926.4 |
| 20260903070050 | 73 | 321 | 5.0 | 10.0 | 0.00 | 0.00 | 0.00 | 70 | 926.3 |
| 20260903065553 | 73 | 281 | 0.0 | 5.0 | 0.00 | 0.00 | 0.00 | 71 | 926.3 |
| 20260903065049 | 73 | 282 | 1.0 | 7.0 | 0.00 | 0.00 | 0.00 | 71 | 926.4 |
| 20260903064555 | 73 | 282 | 4.0 | 11.0 | 0.00 | 0.00 | 0.00 | 70 | 926.4 |
| 20260903064050 | 73 | 277 | 8.0 | 11.0 | 0.00 | 0.00 | 0.00 | 70 | 926.4 |
| 20260903063549 | 73 | 300 | 1.0 | 19.0 | 0.00 | 0.00 | 0.00 | 70 | 926.3 |
| 20260903063047 | 73 | 331 | 10.0 | 19.0 | 0.00 | 0.00 | 0.00 | 71 | 926.3 |
| 20260903062546 | 72 | 263 | 8.0 | 16.0 | 0.00 | 0.00 | 0.00 | 72 | 926.3 |
| 20260903061547 | 72 | 117 | 10.0 | 15.0 | 0.00 | 0.00 | 0.00 | 71 | 924.7 |
| 20260903061049 | 72 | 113 | 11.0 | 15.0 | 0.00 | 0.00 | 0.00 | 71 | 924.9 |
| 20260903060551 | 72 | 132 | 10.0 | 18.0 | 0.00 | 0.00 | 0.00 | 71 | 924.8 |
| 20260903060044 | 72 | 133 | 11.0 | 20.0 | 0.00 | 0.00 | 0.00 | 71 | 924.9 |
| 20260903055544 | 72 | 131 | 12.0 | 20.0 | 0.00 | 0.00 | 0.00 | 71 | 924.7 |
| 20260903055047 | 72 | 117 | 11.0 | 16.0 | 0.00 | 0.00 | 0.00 | 71 | 924.6 |
| 20260903054544 | 72 | 121 | 10.0 | 15.0 | 0.00 | 0.00 | 0.00 | 71 | 924.6 |
| 20260903054043 | 72 | 116 | 10.0 | 18.0 | 0.00 | 0.00 | 0.00 | 71 | 924.6 |
| 20260903053543 | 72 | 109 | 12.0 | 18.0 | 0.00 | 0.00 | 0.00 | 71 | 924.6 |
| 20260903053042 | 71 | 116 | 11.0 | 18.0 | 0.00 | 0.00 | 0.00 | 71 | 924.6 |
| 20260903052546 | 71 | 119 | 10.0 | 18.0 | 0.00 | 0.00 | 0.00 | 71 | 924.5 |
| 20260903051558 | 71 | 109 | 10.0 | 16.0 | 0.00 | 0.00 | 0.00 | 72 | 924.3 |
| 20260903051041 | 71 | 113 | 12.0 | 18.0 | 0.00 | 0.00 | 0.00 | 71 | 924.3 |
| 20260903050541 | 71 | 100 | 11.0 | 16.0 | 0.00 | 0.00 | 0.00 | 72 | 924.3 |
| 20260903050141 | 71 | 123 | 12.0 | 18.0 | 0.00 | 0.00 | 0.00 | 71 | 924.4 |
| 20260903045541 | 72 | 117 | 13.0 | 19.0 | 0.00 | 0.00 | 0.00 | 71 | 924.4 |
| 20260903045040 | 72 | 115 | 12.0 | 19.0 | 0.00 | 0.00 | 0.00 | 72 | 924.5 |
| 20260903044543 | 72 | 104 | 12.0 | 16.0 | 0.00 | 0.00 | 0.00 | 72 | 924.6 |
| 20260903044041 | 72 | 108 | 11.0 | 15.0 | 0.00 | 0.00 | 0.00 | 72 | 924.7 |
| 20260903043538 | 72 | 110 | 12.0 | 15.0 | 0.00 | 0.00 | 0.00 | 73 | 924.9 |
| 20260903043126 | 72 | 123 | 10.0 | 15.0 | 0.00 | 0.00 | 0.00 | 72 | 925.0 |
| 20260903042537 | 72 | 127 | 10.0 | 14.0 | 0.00 | 0.00 | 0.00 | 72 | 925.2 |
| 20260903041538 | 73 | 119 | 10.0 | 14.0 | 0.00 | 0.00 | 0.00 | 71 | 925.3 |
| 20260903041039 | 72 | 119 | 9.0 | 13.0 | 0.00 | 0.00 | 0.00 | 72 | 925.3 |
| 20260903040537 | 72 | 122 | 9.0 | 13.0 | 0.00 | 0.00 | 0.00 | 71 | 925.3 |
| 20260903040038 | 72 | 113 | 9.0 | 13.0 | 0.00 | 0.00 | 0.00 | 71 | 925.5 |
| 20260903035537 | 72 | 102 | 8.0 | 13.0 | 0.00 | 0.00 | 0.00 | 71 | 925.4 |
| 20260903035036 | 73 | 116 | 10.0 | 13.0 | 0.00 | 0.00 | 0.00 | 71 | 925.4 |
| 20260903034541 | 73 | 104 | 9.0 | 13.0 | 0.00 | 0.00 | 0.00 | 71 | 925.4 |
| 20260903034036 | 73 | 109 | 9.0 | 12.0 | 0.00 | 0.00 | 0.00 | 71 | 925.4 |
| 20260903033537 | 73 | 122 | 8.0 | 13.0 | 0.00 | 0.00 | 0.00 | 70 | 925.4 |
| 20260903033036 | 74 | 108 | 9.0 | 13.0 | 0.00 | 0.00 | 0.00 | 69 | 925.5 |
| 20260903032536 | 74 | 121 | 9.0 | 15.0 | 0.00 | 0.00 | 0.00 | 69 | 925.6 |
| 20260903031536 | 74 | 103 | 10.0 | 15.0 | 0.00 | 0.00 | 0.00 | 68 | 925.4 |
| 20260903031037 | 74 | 111 | 9.0 | 14.0 | 0.00 | 0.00 | 0.00 | 68 | 925.3 |
| 20260903030535 | 75 | 113 | 9.0 | 15.0 | 0.00 | 0.00 | 0.00 | 67 | 925.3 |
| 20260903030035 | 75 | 116 | 10.0 | 15.0 | 0.00 | 0.00 | 0.00 | 67 | 925.3 |
| 20260903025535 | 75 | 113 | 10.0 | 15.0 | 0.00 | 0.00 | 0.00 | 66 | 925.2 |
| 20260903025035 | 75 | 115 | 10.0 | 15.0 | 0.00 | 0.00 | 0.00 | 66 | 925.2 |
| 20260903024535 | 75 | 123 | 10.0 | 16.0 | 0.00 | 0.00 | 0.00 | 66 | 925.3 |
| 20260903024035 | 76 | 110 | 12.0 | 16.0 | 0.00 | 0.00 | 0.00 | 66 | 925.3 |
| 20260903023534 | 76 | 113 | 12.0 | 16.0 | 0.00 | 0.00 | 0.00 | 65 | 925.4 |
| 20260903023035 | 76 | 123 | 11.0 | 16.0 | 0.00 | 0.00 | 0.00 | 65 | 925.4 |
| 20260903022534 | 76 | 143 | 11.0 | 16.0 | 0.00 | 0.00 | 0.00 | 65 | 925.3 |
| 20260903021536 | 76 | 114 | 10.0 | 16.0 | 0.00 | 0.00 | 0.00 | 64 | 925.2 |
| 20260903021034 | 77 | 105 | 11.0 | 16.0 | 0.00 | 0.00 | 0.00 | 64 | 925.3 |
| 20260903020533 | 77 | 113 | 9.0 | 14.0 | 0.00 | 0.00 | 0.00 | 63 | 925.3 |
| 20260903020033 | 77 | 134 | 10.0 | 15.0 | 0.00 | 0.00 | 0.00 | 63 | 925.3 |
| 20260903015534 | 77 | 113 | 11.0 | 14.0 | 0.00 | 0.00 | 0.00 | 62 | 925.3 |
| 20260903015032 | 78 | 116 | 10.0 | 16.0 | 0.00 | 0.00 | 0.00 | 61 | 925.3 |
| 20260903014533 | 78 | 112 | 11.0 | 18.0 | 0.00 | 0.00 | 0.00 | 61 | 925.3 |
| 20260903014033 | 79 | 123 | 11.0 | 18.0 | 0.00 | 0.00 | 0.00 | 60 | 925.2 |
| 20260903013535 | 79 | 126 | 11.0 | 15.0 | 0.00 | 0.00 | 0.00 | 60 | 925.2 |
| 20260903013032 | 79 | 125 | 10.0 | 19.0 | 0.00 | 0.00 | 0.00 | 59 | 925.1 |
| 20260903012534 | 80 | 115 | 13.0 | 20.0 | 0.00 | 0.00 | 0.00 | 58 | 925.1 |
| 20260903011533 | 81 | 123 | 13.0 | 23.0 | 0.00 | 0.00 | 0.00 | 56 | 925.0 |
| 20260903011036 | 81 | 133 | 11.0 | 20.0 | 0.00 | 0.00 | 0.00 | 55 | 925.1 |
| 20260903010532 | 81 | 124 | 12.0 | 22.0 | 0.00 | 0.00 | 0.00 | 55 | 925.2 |
| 20260903010038 | 82 | 134 | 14.0 | 22.0 | 0.00 | 0.00 | 0.00 | 54 | 925.1 |
| 20260903005531 | 82 | 126 | 13.0 | 21.0 | 0.00 | 0.00 | 0.00 | 53 | 925.1 |
| 20260903005031 | 82 | 112 | 14.0 | 23.0 | 0.00 | 0.00 | 0.00 | 53 | 925.1 |
| 20260903004534 | 82 | 123 | 14.0 | 23.0 | 0.00 | 0.00 | 0.00 | 52 | 925.1 |
| 20260903004034 | 83 | 120 | 16.0 | 23.0 | 0.00 | 0.00 | 0.00 | 52 | 925.0 |
| 20260903003530 | 83 | 117 | 14.0 | 23.0 | 0.00 | 0.00 | 0.00 | 51 | 925.0 |
| 20260903003030 | 83 | 122 | 14.0 | 25.0 | 0.00 | 0.00 | 0.00 | 51 | 925.1 |
| 20260903002530 | 84 | 142 | 15.0 | 25.0 | 0.00 | 0.00 | 0.00 | 50 | 925.1 |
| 20260903001528 | 84 | 124 | 16.0 | 23.0 | 0.00 | 0.00 | 0.00 | 49 | 925.0 |
| 20260903001028 | 85 | 114 | 14.0 | 22.0 | 0.00 | 0.00 | 0.00 | 48 | 925.1 |
| 20260903000527 | 85 | 107 | 13.0 | 21.0 | 0.00 | 0.00 | 0.00 | 49 | 925.2 |
| 20260903000027 | 85 | 107 | 14.0 | 23.0 | 0.00 | 0.00 | 0.00 | 49 | 925.1 |
| 20260902235527 | 85 | 122 | 16.0 | 23.0 | 0.00 | 0.00 | 0.00 | 48 | 925.1 |
| 20260902235027 | 85 | 109 | 16.0 | 23.0 | 0.00 | 0.00 | 0.00 | 47 | 925.2 |
| 20260902234525 | 86 | 115 | 12.0 | 21.0 | 0.00 | 0.00 | 0.00 | 47 | 925.2 |
| 20260902234025 | 86 | 130 | 13.0 | 22.0 | 0.00 | 0.00 | 0.00 | 47 | 925.3 |
| 20260902233525 | 86 | 128 | 16.0 | 23.0 | 0.00 | 0.00 | 0.00 | 47 | 925.4 |
| 20260902233025 | 86 | 121 | 14.0 | 23.0 | 0.00 | 0.00 | 0.00 | 47 | 925.3 |
| 20260902232524 | 86 | 128 | 14.0 | 22.0 | 0.00 | 0.00 | 0.00 | 47 | 925.4 |
| 20260902231531 | 86 | 111 | 13.0 | 19.0 | 0.00 | 0.00 | 0.00 | 48 | 925.3 |
| 20260902231025 | 85 | 123 | 15.0 | 21.0 | 0.00 | 0.00 | 0.00 | 48 | 925.4 |
| 20260902230524 | 84 | 133 | 15.0 | 21.0 | 0.00 | 0.00 | 0.00 | 48 | 925.5 |
| 20260902230024 | 84 | 129 | 11.0 | 21.0 | 0.00 | 0.00 | 0.00 | 47 | 925.6 |
| 20260902225524 | 85 | 134 | 11.0 | 21.0 | 0.00 | 0.00 | 0.00 | 47 | 925.5 |
| 20260902225024 | 86 | 127 | 11.0 | 20.0 | 0.00 | 0.00 | 0.00 | 46 | 925.5 |
| 20260902224529 | 86 | 143 | 13.0 | 21.0 | 0.00 | 0.00 | 0.00 | 46 | 925.6 |
| 20260902224024 | 86 | 121 | 13.0 | 22.0 | 0.00 | 0.00 | 0.00 | 46 | 925.5 |
| 20260902223526 | 87 | 131 | 15.0 | 23.0 | 0.00 | 0.00 | 0.00 | 45 | 925.6 |
| 20260902223026 | 87 | 132 | 16.0 | 24.0 | 0.00 | 0.00 | 0.00 | 46 | 925.6 |
| 20260902222521 | 87 | 130 | 14.0 | 24.0 | 0.00 | 0.00 | 0.00 | 45 | 925.7 |
| 20260902221521 | 87 | 123 | 14.0 | 21.0 | 0.00 | 0.00 | 0.00 | 45 | 925.7 |
| 20260902221021 | 87 | 130 | 14.0 | 21.0 | 0.00 | 0.00 | 0.00 | 45 | 925.8 |
| 20260902220521 | 87 | 113 | 12.0 | 21.0 | 0.00 | 0.00 | 0.00 | 46 | 925.8 |
| 20260902220020 | 86 | 107 | 12.0 | 20.0 | 0.00 | 0.00 | 0.00 | 46 | 925.7 |
| 20260902215525 | 85 | 130 | 13.0 | 22.0 | 0.00 | 0.00 | 0.00 | 47 | 925.8 |
| 20260902215019 | 86 | 132 | 15.0 | 22.0 | 0.00 | 0.00 | 0.00 | 47 | 925.9 |
| 20260902214519 | 86 | 126 | 12.0 | 23.0 | 0.00 | 0.00 | 0.00 | 46 | 925.9 |
| 20260902214019 | 87 | 126 | 15.0 | 23.0 | 0.00 | 0.00 | 0.00 | 46 | 925.9 |
| 20260902213518 | 87 | 152 | 14.0 | 23.0 | 0.00 | 0.00 | 0.00 | 46 | 926.0 |
| 20260902213016 | 86 | 121 | 14.0 | 23.0 | 0.00 | 0.00 | 0.00 | 47 | 926.0 |
| 20260902212516 | 86 | 120 | 15.0 | 26.0 | 0.00 | 0.00 | 0.00 | 47 | 926.2 |
| 20260902211517 | 86 | 119 | 17.0 | 24.0 | 0.00 | 0.00 | 0.00 | 47 | 926.1 |
| 20260902211015 | 87 | 121 | 15.0 | 23.0 | 0.00 | 0.00 | 0.00 | 47 | 926.2 |
| 20260902210514 | 86 | 124 | 13.0 | 24.0 | 0.00 | 0.00 | 0.00 | 48 | 926.1 |
| 20260902210014 | 86 | 120 | 12.0 | 24.0 | 0.00 | 0.00 | 0.00 | 48 | 926.3 |
| 20260902205513 | 86 | 140 | 13.0 | 22.0 | 0.00 | 0.00 | 0.00 | 48 | 926.3 |
| 20260902205013 | 86 | 119 | 14.0 | 24.0 | 0.00 | 0.00 | 0.00 | 48 | 926.3 |
| 20260902204516 | 86 | 128 | 17.0 | 25.0 | 0.00 | 0.00 | 0.00 | 47 | 926.6 |
| 20260902204014 | 86 | 121 | 16.0 | 25.0 | 0.00 | 0.00 | 0.00 | 48 | 926.4 |
| 20260902203511 | 86 | 108 | 12.0 | 23.0 | 0.00 | 0.00 | 0.00 | 49 | 926.5 |
| 20260902203011 | 86 | 133 | 14.0 | 23.0 | 0.00 | 0.00 | 0.00 | 48 | 926.5 |
| 20260902202510 | 85 | 129 | 13.0 | 22.0 | 0.00 | 0.00 | 0.00 | 48 | 926.7 |
| 20260902201558 | 86 | 138 | 13.0 | 24.0 | 0.00 | 0.00 | 0.00 | 48 | 926.9 |
| 20260902201042 | 86 | 134 | 17.0 | 23.0 | 0.00 | 0.00 | 0.00 | 47 | 926.9 |
| 20260902200538 | 86 | 130 | 14.0 | 22.0 | 0.00 | 0.00 | 0.00 | 48 | 926.8 |
| 20260902200051 | 86 | 129 | 15.0 | 22.0 | 0.00 | 0.00 | 0.00 | 49 | 926.9 |
| 20260902195537 | 85 | 154 | 16.0 | 25.0 | 0.00 | 0.00 | 0.00 | 49 | 927.0 |
| 20260902195037 | 86 | 133 | 13.0 | 25.0 | 0.00 | 0.00 | 0.00 | 49 | 927.0 |
| 20260902194534 | 85 | 132 | 13.0 | 24.0 | 0.00 | 0.00 | 0.00 | 50 | 927.0 |
| 20260902194035 | 85 | 127 | 14.0 | 24.0 | 0.00 | 0.00 | 0.00 | 49 | 927.2 |
| 20260902193532 | 85 | 124 | 15.0 | 23.0 | 0.00 | 0.00 | 0.00 | 50 | 927.1 |
| 20260902193031 | 85 | 117 | 14.0 | 25.0 | 0.00 | 0.00 | 0.00 | 50 | 927.3 |
| 20260902192531 | 84 | 137 | 16.0 | 25.0 | 0.00 | 0.00 | 0.00 | 50 | 927.4 |
| 20260902191519 | 84 | 138 | 17.0 | 25.0 | 0.00 | 0.00 | 0.00 | 50 | 927.5 |
| 20260902191018 | 83 | 105 | 17.0 | 27.0 | 0.00 | 0.00 | 0.00 | 51 | 927.5 |
| 20260902190519 | 84 | 117 | 15.0 | 27.0 | 0.00 | 0.00 | 0.00 | 51 | 927.6 |
| 20260902190027 | 84 | 134 | 20.0 | 28.0 | 0.00 | 0.00 | 0.00 | 51 | 927.6 |
| 20260902185515 | 83 | 133 | 17.0 | 28.0 | 0.00 | 0.00 | 0.00 | 52 | 927.7 |
| 20260902185013 | 83 | 111 | 17.0 | 26.0 | 0.00 | 0.00 | 0.00 | 51 | 927.7 |
| 20260902184516 | 83 | 126 | 16.0 | 27.0 | 0.00 | 0.00 | 0.00 | 52 | 927.8 |
| 20260902184012 | 83 | 172 | 18.0 | 27.0 | 0.00 | 0.00 | 0.00 | 53 | 928.1 |
| 20260902183513 | 82 | 122 | 16.0 | 23.0 | 0.00 | 0.00 | 0.00 | 53 | 928.0 |
| 20260902183012 | 83 | 140 | 16.0 | 23.0 | 0.00 | 0.00 | 0.00 | 53 | 928.1 |
| 20260902182509 | 83 | 142 | 14.0 | 22.0 | 0.00 | 0.00 | 0.00 | 53 | 928.1 |
| 20260902181550 | 82 | 138 | 16.0 | 22.0 | 0.00 | 0.00 | 0.00 | 54 | 928.3 |
| 20260902181048 | 82 | 130 | 15.0 | 24.0 | 0.00 | 0.00 | 0.00 | 54 | 928.4 |
| 20260902180547 | 81 | 106 | 18.0 | 24.0 | 0.00 | 0.00 | 0.00 | 55 | 928.5 |
| 20260902180047 | 81 | 144 | 15.0 | 26.0 | 0.00 | 0.00 | 0.00 | 56 | 928.5 |
| 20260902175545 | 81 | 118 | 15.0 | 26.0 | 0.00 | 0.00 | 0.00 | 56 | 928.6 |
| 20260902175045 | 81 | 148 | 14.0 | 24.0 | 0.00 | 0.00 | 0.00 | 57 | 928.7 |
| 20260902174545 | 81 | 121 | 17.0 | 25.0 | 0.00 | 0.00 | 0.00 | 56 | 928.8 |
| 20260902174045 | 80 | 122 | 16.0 | 23.0 | 0.00 | 0.00 | 0.00 | 56 | 928.8 |
| 20260902173543 | 80 | 142 | 14.0 | 24.0 | 0.00 | 0.00 | 0.00 | 57 | 928.9 |
| 20260902173043 | 80 | 163 | 16.0 | 25.0 | 0.00 | 0.00 | 0.00 | 57 | 928.9 |
| 20260902172541 | 79 | 140 | 18.0 | 25.0 | 0.00 | 0.00 | 0.00 | 58 | 928.9 |
| 20260902171540 | 79 | 131 | 16.0 | 23.0 | 0.00 | 0.00 | 0.00 | 60 | 929.0 |
| 20260902171040 | 78 | 138 | 13.0 | 21.0 | 0.00 | 0.00 | 0.00 | 62 | 929.0 |
| 20260902170538 | 77 | 150 | 15.0 | 25.0 | 0.00 | 0.00 | 0.00 | 63 | 929.0 |
| 20260902170036 | 78 | 131 | 12.0 | 21.0 | 0.00 | 0.00 | 0.00 | 63 | 929.1 |
| 20260902165535 | 76 | 95 | 13.0 | 23.0 | 0.00 | 0.00 | 0.00 | 66 | 929.1 |
| 20260902165035 | 76 | 137 | 14.0 | 24.0 | 0.00 | 0.00 | 0.00 | 66 | 929.1 |
| 20260902164534 | 76 | 129 | 14.0 | 24.0 | 0.00 | 0.00 | 0.00 | 67 | 929.2 |
| 20260902164032 | 75 | 132 | 14.0 | 22.0 | 0.00 | 0.00 | 0.00 | 67 | 929.1 |
| 20260902163530 | 75 | 123 | 14.0 | 21.0 | 0.00 | 0.00 | 0.00 | 67 | 929.3 |
| 20260902163028 | 75 | 360 | 14.0 | 21.0 | 0.00 | 0.00 | 0.00 | 67 | 929.3 |
| 20260902162527 | 74 | 360 | 12.0 | 19.0 | 0.00 | 0.00 | 0.00 | 66 | 929.4 |
| 20260902161536 | 73 | 360 | 15.0 | 20.0 | 0.00 | 0.00 | 0.00 | 65 | 929.5 |
| 20260902161025 | 73 | 360 | 12.0 | 19.0 | 0.00 | 0.00 | 0.00 | 67 | 929.5 |
| 20260902160523 | 72 | 360 | 11.0 | 19.0 | 0.00 | 0.00 | 0.00 | 65 | 929.6 |
| 20260902160025 | 72 | 360 | 12.0 | 20.0 | 0.00 | 0.00 | 0.00 | 65 | 929.7 |
| 20260902155521 | 71 | 360 | 15.0 | 20.0 | 0.00 | 0.00 | 0.00 | 63 | 929.8 |
| 20260902155020 | 71 | 360 | 11.0 | 19.0 | 0.00 | 0.00 | 0.00 | 64 | 929.8 |
| 20260902154526 | 70 | 360 | 12.0 | 21.0 | 0.00 | 0.00 | 0.00 | 64 | 929.9 |
| 20260902154117 | 70 | 360 | 14.0 | 21.0 | 0.00 | 0.00 | 0.00 | 64 | 929.9 |
| 20260902153518 | 70 | 360 | 12.0 | 19.0 | 0.00 | 0.00 | 0.00 | 63 | 930.0 |
| 20260902153018 | 70 | 134 | 12.0 | 21.0 | 0.00 | 0.00 | 0.00 | 64 | 930.1 |
| 20260902152514 | 69 | 142 | 13.0 | 21.0 | 0.00 | 0.00 | 0.00 | 64 | 930.0 |
| 20260902151516 | 69 | 130 | 13.0 | 19.0 | 0.00 | 0.00 | 0.00 | 64 | 930.0 |
| 20260902151015 | 68 | 125 | 12.0 | 19.0 | 0.00 | 0.00 | 0.00 | 65 | 930.0 |
| 20260902150513 | 68 | 126 | 12.0 | 18.0 | 0.00 | 0.00 | 0.00 | 64 | 930.0 |
| 20260902150015 | 67 | 128 | 11.0 | 18.0 | 0.00 | 0.00 | 0.00 | 65 | 929.9 |
| 20260902145511 | 67 | 360 | 10.0 | 19.0 | 0.00 | 0.00 | 0.00 | 65 | 929.9 |
| 20260902145011 | 67 | 131 | 12.0 | 19.0 | 0.00 | 0.00 | 0.00 | 65 | 930.0 |
| 20260902144510 | 66 | 119 | 11.0 | 19.0 | 0.00 | 0.00 | 0.00 | 66 | 930.0 |
| 20260902144007 | 65 | 118 | 12.0 | 19.0 | 0.00 | 0.00 | 0.00 | 66 | 930.0 |
| 20260902143507 | 65 | 360 | 11.0 | 18.0 | 0.00 | 0.00 | 0.00 | 67 | 930.1 |
| 20260902143005 | 65 | 360 | 11.0 | 16.0 | 0.00 | 0.00 | 0.00 | 68 | 930.2 |
| 20260902142504 | 64 | 360 | 11.0 | 16.0 | 0.00 | 0.00 | 0.00 | 69 | 930.2 |
| 20260902141501 | 63 | 360 | 9.0 | 14.0 | 0.00 | 0.00 | 0.00 | 72 | 930.2 |
| 20260902141100 | 62 | 360 | 9.0 | 13.0 | 0.00 | 0.00 | 0.00 | 73 | 930.2 |
| 20260902141001 | 62 | 360 | 9.0 | 13.0 | 0.00 | 0.00 | 0.00 | 73 | 930.2 |
| 20260902140600 | 61 | 360 | 9.0 | 13.0 | 0.00 | 0.00 | 0.00 | 74 | 930.2 |
| 20260902140501 | 61 | 360 | 9.0 | 13.0 | 0.00 | 0.00 | 0.00 | 74 | 930.2 |
| 20260902140000 | 60 | 360 | 9.0 | 11.0 | 0.00 | 0.00 | 0.00 | 76 | 930.1 |